Kezdőlap
METAR-TAF:

METAR-TAF

Repülőterek :

Illinois Valley Regional Airport (Walter A. Duncan Field)

Peru-LaSalle, Illinois, Amerikai Egyesült Államok

földrajzi szélesség: 41-21-07N, földrajzi hosszúság: 089-09-11W, magasság: 199 m

Jelenlegi meteorológiai megfigyelések

A jelentés 19 perccel ezelõtt készült, 13:55 UTC
Kelet-északkeleti szél 9 kt
Hőmérséklet 1°C
Páratartalom 86%
Légköri nyomás 1028 hPa
Látótávolság: 8.0 km
Borult 2400 lábon
Párásság

METAR: KVYS 081355Z AUTO 06009KT 5SM BR OVC024 01/M01 A3036 RMK AO2 T00131006

Idő: 08:14 (14:14 UTC)


TAF: hiányzik

Meteorológiai megfigyelések és előrejelzések több, mint 4000 repülőtéren (METAR és TAF jelentéseket).

A térképen piros és sárga pontok jelzik az elérhető meteorológiai állomásokat.

Mozgassa az egeret a pont fölött, hogy megjelenjen az állomás neve.

Azután kattintson az időjárási megfigyelések és előrejelzések megtekintéséhez.

A térkép megváltoztatása: kattintson a fekete keresztel jelölt zöld gombra ráközelítéshez, a vonallal jelölt zöld gombra távolításhoz, vagy a zöld nyilakra a szomszédos térképek eléréséhez.


METAR-TAF: